This demonstration page uses our WeatherBlox Daily Observations layout. Learn more.

38.88101, -77.10428

Hourly Observations for May 28, 2020

Temp ( °F °C ) Dew Point ( °F °C ) Humidity (%) Winds ( mph kmh ) Pressure ( in mb ) Visibility ( mi km ) Precip ( " mm )
12:28 am 00:28 Cloudy 72 22.2 68 20 87 87 SE 8 13 30.15 1021 10 16.0934 0.001 0.001
12:52 am 00:52 Cloudy 72 22.2 69 20.6 91 91 SE 8 13 30.15 1021 10 16.0934 0.001 0.001
1:52 am 01:52 Cloudy 72 22.2 69 20.6 91 91 SSE 7 11 30.13 1020 10 16.0934 0 0
2:52 am 02:52 Cloudy 72 22.2 69 20.6 91 91 SE 10 17 30.11 1020 8 12.87472 0 0
3:49 am 03:49 Cloudy 72 22 70 21 94 94 SE 6 9 30.1 1019 8 12.87472 0.001 0.001
3:52 am 03:52 Cloudy 72 22.2 70 21.1 94 94 SE 7 11 30.1 1019 10 16.0934 0.001 0.001
4:06 am 04:06 Cloudy 72 22.2 69 20.6 91 91 SE 9 15 30.1 1019 10 16.0934 0 0
4:52 am 04:52 Cloudy 72 22.2 69 20.6 91 91 SE 10 17 30.09 1019 10 16.0934 0 0
5:52 am 05:52 Cloudy with Light Rain 73 22.8 70 21.1 90 90 SE 10 17 30.09 1019 7 11.26538 0.01 0.254
6:52 am 06:52 Cloudy with Light Rain 73 22.8 70 21.1 90 90 SSE 10 17 30.08 1019 8 12.87472 0.001 0.001
7:52 am 07:52 Cloudy 73 22.8 70 21.1 90 90 SSE 13 20 30.08 1019 10 16.0934 0.001 0.001
8:52 am 08:52 Cloudy 74 23.3 70 21.1 88 88 SSE 13 20 30.09 1019 10 16.0934 0.001 0.001
9:15 am 09:15 Cloudy with Light Rain 74 23.3 71 21.7 91 91 SSE 12 19 30.09 1019 2.5 4.02335 0.01 0.254
9:20 am 09:20 Cloudy with Light Rain 74 23.3 71 21.7 91 91 SSE 13 20 30.08 1019 4 6.43736 0.01 0.254
9:38 am 09:38 Cloudy with Heavy Rain 74 23.3 71 21.7 91 91 SSE 16 26 30.08 1019 2 3.21868 0.03 0.762
9:52 am 09:52 Cloudy with Light Rain 74 23.3 71 21.7 91 91 SSE 16 26 30.08 1019 1.5 2.41401 0.07 1.778
9:56 am 09:56 Cloudy with Light Rain 74 23.3 71 21.7 91 91 SSE 14 22 30.08 1019 3 4.82802 0.001 0.001
10:11 am 10:11 Cloudy 75 23.9 72 22.2 90 90 S 13 20 30.07 1018 10 16.0934 0.001 0.001
10:52 am 10:52 Cloudy 75 23.9 72 22.2 90 90 S 14 22 30.07 1018 10 16.0934 0.001 0.001
11:31 am 11:31 Cloudy 77 25 72 22.2 85 85 S 16 26 30.07 1018 10 16.0934 0.001 0.001
11:52 am 11:52 Cloudy 77 25 72 22.2 85 85 S 14 22 30.06 1018 10 16.0934 0.001 0.001
12:52 pm 12:52 Cloudy 79 26.1 74 23.3 85 85 S 10 17 30.06 1018 10 16.0934 0.001 0.001
1:22 pm 13:22 Cloudy 78 25.6 73 22.8 85 85 S 14 22 30.06 1018 10 16.0934 0 0
1:52 pm 13:52 Cloudy 78 25.6 73 22.8 85 85 S 12 19 30.05 1018 10 16.0934 0 0
2:05 pm 14:05 Cloudy 77 25 73 22.8 88 88 S 12 19 30.06 1018 10 16.0934 0 0
2:23 pm 14:23 Cloudy 77 25 74 23.3 90 90 S 10 17 30.05 1018 10 16.0934 0 0
2:52 pm 14:52 Cloudy 78 25.6 73 22.8 85 85 S 13 20 30.04 1017 10 16.0934 0 0
3:52 pm 15:52 Cloudy 79 26.1 73 22.8 82 82 S 12 19 30.03 1017 10 16.0934 0 0
4:52 pm 16:52 Cloudy 79 26.1 73 22.8 82 82 S 9 15 30.02 1017 10 16.0934 0 0
5:52 pm 17:52 Cloudy 78 25.6 73 22.8 85 85 S 8 13 30.01 1016 10 16.0934 0 0
6:17 pm 18:17 Cloudy 78 25.6 72 22.2 82 82 S 15 24 30.02 1017 10 16.0934 0 0
6:52 pm 18:52 Cloudy 78 25.6 73 22.8 85 85 S 9 15 30.01 1016 10 16.0934 0 0
7:52 pm 19:52 Mostly Cloudy 76 24.4 72 22.2 88 88 S 10 17 30 1016 10 16.0934 0 0
8:52 pm 20:52 Mostly Cloudy 75 23.9 72 22.2 90 90 S 8 13 30 1016 10 16.0934 0 0
9:46 pm 21:46 Mostly Cloudy 75 24 72 22 89 89 S 7 11 30.03 1017 10 16.0934 0 0
9:52 pm 21:52 Mostly Cloudy 75 23.9 72 22.2 90 90 S 7 11 30.03 1017 10 16.0934 0 0
10:23 pm 22:23 Cloudy 75 23.9 72 22.2 90 90 S 8 13 30.03 1017 10 16.0934 0 0
10:52 pm 22:52 Mostly Cloudy 75 23.9 72 22.2 90 90 S 9 15 30.03 1017 9 14.48406 0 0
11:40 pm 23:40 Cloudy 75 23.9 73 22.8 94 94 S 8 13 30.04 1017 8 12.87472 0 0
11:52 pm 23:52 Cloudy 75 23.9 73 22.8 94 94 S 8 13 30.04 1017 8 12.87472 0 0

Powered by AerisWeather